Tracking 25372 objects as of 24-Jan-2022
HD Live streaming from Space Station
objects crossing your sky now

GORIZONT 2

Track GORIZONT 2 now!
GORIZONT 2 is classified as:


NORAD ID: 11440
Int'l Code: 1979-062A
Perigee: 35,791.1 km
Apogee: 35,816.1 km
Inclination: 9.6 °
Period: 1,436.6 minutes
Semi major axis: 42174 km
RCS: 3.981 m2 (large)
Launch date: July 5, 1979
Source: Commonwealth of Independent States (former USSR) (CIS)
Launch site: TYURATAM MISSILE AND SPACE COMPLEX (TTMTR)
aabbcc
Your satellite tracking list
Your tracking list is empty




NASA's NSSDC Master Catalog

Two Line Element Set (TLE):
1 11440U 79062A   22024.26993919 -.00000067  00000-0  00000-0 0  9996
2 11440   9.6183 303.5486 0002963 325.6461  26.7437  1.00236549121929
Source of the keplerian elements: AFSPC